QPF
0.07 0.06 0.04 0.04 0.06 0.06 0.08 0.09 0.07 0.05 0.03 0.04 0.06 0.06 0.05 0.04 0.06 0.08 0.07 0.05 0.04 0.03 0.02 0.01 0.00 0.00 0.00 0.00 0.01 0.01 0.01 0.01 0.02 0.02 0.03 0.03 0.05 0.09
0.07 0.08 0.06 0.06 0.07 0.07 0.07 0.08 0.08 0.06 0.04 0.04 0.03 0.02 0.02 0.03 0.04 0.04 0.06 0.08 0.05 0.02 0.02 0.01 0.00 0.00 0.00 0.00 0.00 0.01 0.01 0.01 0.01 0.01 0.02 0.02 0.03 0.06
0.07 0.06 0.05 0.06 0.07 0.07 0.06 0.08 0.07 0.06 0.03 0.02 0.01 0.02 0.04 0.02 0.03 0.04 0.04 0.05 0.06 0.04 0.02 0.01 0.01 0.00 0.00 0.00 0.00 0.00 0.01 0.00 0.01 0.01 0.02 0.02 0.02 0.03
0.04 0.06 0.05 0.06 0.06 0.07 0.06 0.06 0.06 0.05 0.04 0.02 0.02 0.02 0.03 0.02 0.02 0.03 0.02 0.02 0.02 0.04 0.03 0.02 0.01 0.01 0.00 0.00 0.00 0.00 0.01 0.00 0.00 0.01 0.01 0.02 0.02 0.02
0.05 0.05 0.06 0.06 0.06 0.08 0.08 0.08 0.07 0.05 0.04 0.04 0.02 0.02 0.02 0.03 0.03 0.03 0.02 0.01 0.01 0.02 0.03 0.03 0.02 0.01 0.01 0.01 0.01 0.01 0.01 0.00 0.00 0.01 0.01 0.01 0.02 0.02
0.05 0.05 0.05 0.06 0.07 0.09 0.09 0.09 0.07 0.06 0.05 0.05 0.04 0.03 0.03 0.03 0.04 0.03 0.03 0.01 0.01 0.02 0.03 0.03 0.02 0.02 0.02 0.01 0.01 0.01 0.01 0.01 0.00 0.01 0.01 0.01 0.02 0.02
0.03 0.04 0.05 0.06 0.06 0.07 0.07 0.07 0.07 0.06 0.05 0.06 0.04 0.03 0.03 0.04 0.03 0.03 0.03 0.02 0.02 0.02 0.03 0.03 0.03 0.03 0.03 0.03 0.02 0.02 0.01 0.01 0.00 0.00 0.01 0.01 0.01 0.01
0.04 0.04 0.05 0.04 0.03 0.03 0.03 0.04 0.06 0.06 0.05 0.05 0.04 0.03 0.03 0.03 0.03 0.04 0.03 0.03 0.02 0.02 0.03 0.04 0.06 0.04 0.04 0.03 0.02 0.03 0.02 0.02 0.01 0.01 0.01 0.01 0.01 0.01
0.02 0.02 0.02 0.01 0.01 0.01 0.02 0.03 0.04 0.04 0.05 0.05 0.04 0.04 0.05 0.03 0.04 0.05 0.04 0.03 0.02 0.03 0.04 0.04 0.04 0.03 0.03 0.04 0.04 0.03 0.03 0.02 0.02 0.02 0.02 0.01 0.01 0.01
0.01 0.01 0.01 0.01 0.02 0.01 0.01 0.02 0.02 0.02 0.03 0.03 0.02 0.02 0.02 0.03 0.03 0.03 0.04 0.04 0.04 0.04 0.05 0.03 0.03 0.03 0.04 0.04 0.04 0.04 0.03 0.03 0.02 0.02 0.01 0.02 0.02 0.01
0.01 0.01 0.01 0.01 0.01 0.01 0.01 0.01 0.02 0.02 0.03 0.04 0.04 0.03 0.03 0.03 0.04 0.04 0.04 0.04 0.03 0.03 0.04 0.03 0.02 0.03 0.04 0.04 0.05 0.05 0.04 0.04 0.03 0.03 0.02 0.02 0.02 0.03
0.01 0.00 0.02 0.01 0.01 0.01 0.00 0.01 0.02 0.02 0.03 0.04 0.06 0.06 0.06 0.05 0.04 0.04 0.04 0.05 0.05 0.04 0.03 0.05 0.04 0.05 0.05 0.04 0.04 0.04 0.04 0.04 0.04 0.03 0.02 0.01 0.02 0.02
0.01 0.01 0.01 0.01 0.00 0.00 0.00 0.00 0.01 0.02 0.03 0.05 0.05 0.06 0.06 0.06 0.05 0.04 0.04 0.05 0.06 0.06 0.05 0.05 0.05 0.05 0.05 0.05 0.04 0.04 0.03 0.03 0.03 0.03 0.03 0.03 0.03 0.02
0.01 0.01 0.01 0.01 0.01 0.00 0.00 0.00 0.00 0.01 0.03 0.04 0.05 0.05 0.05 0.05 0.04 0.04 0.05 0.06 0.06 0.05 0.07 0.07 0.04 0.05 0.05 0.05 0.03 0.03 0.03 0.04 0.03 0.02 0.02 0.02 0.02 0.02
0.01 0.01 0.01 0.01 0.01 0.01 0.00 0.00 0.00 0.01 0.02 0.02 0.03 0.04 0.04 0.05 0.05 0.06 0.07 0.06 0.07 0.06 0.06 0.07 0.06 0.05 0.04 0.04 0.03 0.03 0.03 0.04 0.03 0.02 0.01 0.01 0.01 0.01
0.01 0.01 0.00 0.01 0.01 0.01 0.00 0.00 0.00 0.01 0.01 0.02 0.02 0.02 0.03 0.05 0.07 0.07 0.07 0.07 0.07 0.07 0.06 0.06 0.07 0.07 0.05 0.04 0.03 0.03 0.03 0.03 0.03 0.02 0.02 0.01 0.01 0.01
0.01 0.01 0.00 0.00 0.00 0.00 0.01 0.01 0.01 0.01 0.01 0.02 0.02 0.03 0.03 0.04 0.05 0.06 0.07 0.07 0.07 0.05 0.05 0.06 0.07 0.07 0.05 0.03 0.02 0.02 0.03 0.03 0.04 0.03 0.02 0.02 0.01 0.02
0.01 0.01 0.00 0.00 0.00 0.00 0.00 0.00 0.01 0.01 0.01 0.02 0.02 0.03 0.04 0.04 0.05 0.07 0.09 0.09 0.08 0.07 0.06 0.05 0.05 0.06 0.05 0.03 0.02 0.02 0.02 0.02 0.03 0.03 0.03 0.02 0.01 0.02
0.02 0.01 0.01 0.00 0.00 0.00 0.00 0.00 0.01 0.01 0.01 0.01 0.02 0.02 0.03 0.04 0.05 0.07 0.09 0.09 0.09 0.07 0.06 0.04 0.04 0.04 0.04 0.03 0.02 0.02 0.02 0.02 0.03 0.03 0.03 0.03 0.02 0.03
0.02 0.02 0.01 0.01 0.01 0.01 0.01 0.01 0.01 0.01 0.02 0.02 0.02 0.03 0.04 0.05 0.05 0.06 0.06 0.06 0.06 0.06 0.05 0.04 0.03 0.04 0.05 0.04 0.03 0.02 0.02 0.02 0.03 0.03 0.03 0.04 0.04 0.04
0.02 0.02 0.01 0.02 0.02 0.02 0.02 0.02 0.02 0.03 0.03 0.03 0.04 0.05 0.06 0.07 0.07 0.07 0.07 0.06 0.05 0.05 0.04 0.04 0.04 0.04 0.04 0.04 0.04 0.02 0.02 0.03 0.04 0.03 0.04 0.06 0.05 0.04
0.04 0.04 0.03 0.02 0.03 0.03 0.03 0.03 0.03 0.04 0.04 0.05 0.05 0.05 0.06 0.07 0.06 0.06 0.06 0.06 0.06 0.05 0.05 0.04 0.04 0.04 0.05 0.05 0.04 0.03 0.03 0.04 0.05 0.05 0.07 0.11 0.09 0.05
0.02 0.02 0.02 0.03 0.04 0.04 0.05 0.05 0.06 0.05 0.04 0.05 0.05 0.04 0.03 0.04 0.04 0.05 0.06 0.06 0.06 0.06 0.07 0.06 0.06 0.06 0.06 0.06 0.06 0.04 0.03 0.04 0.05 0.06 0.07 0.11 0.13 0.10
MSLP
1011.00 1011.18 1011.36 1011.52 1011.63 1011.67 1011.61 1011.47 1011.22 1010.89 1010.49 1010.03 1009.53 1009.01 1008.49 1008.00 1007.55 1007.16 1006.86 1006.65 1006.54 1006.52 1006.55 1006.61 1006.67 1006.70 1006.66 1006.55 1006.37 1006.12 1005.85 1005.57 1005.32 1005.11 1004.96 1004.86 1004.81 1004.79
1010.20 1010.38 1010.56 1010.72 1010.85 1010.92 1010.93 1010.87 1010.73 1010.52 1010.24 1009.89 1009.49 1009.04 1008.57 1008.09 1007.62 1007.20 1006.85 1006.59 1006.42 1006.33 1006.32 1006.35 1006.38 1006.38 1006.33 1006.21 1006.01 1005.75 1005.45 1005.13 1004.83 1004.57 1004.36 1004.20 1004.09 1004.01
1009.45 1009.64 1009.81 1009.98 1010.12 1010.23 1010.29 1010.30 1010.25 1010.15 1009.97 1009.74 1009.43 1009.06 1008.64 1008.18 1007.71 1007.26 1006.86 1006.53 1006.29 1006.14 1006.07 1006.04 1006.04 1006.02 1005.95 1005.82 1005.62 1005.36 1005.05 1004.72 1004.40 1004.11 1003.85 1003.64 1003.47 1003.33
1008.80 1009.00 1009.19 1009.36 1009.51 1009.64 1009.74 1009.80 1009.82 1009.80 1009.72 1009.57 1009.35 1009.04 1008.67 1008.23 1007.76 1007.29 1006.84 1006.44 1006.13 1005.91 1005.76 1005.68 1005.62 1005.57 1005.49 1005.35 1005.16 1004.90 1004.60 1004.28 1003.96 1003.65 1003.37 1003.12 1002.91 1002.71
1008.24 1008.47 1008.68 1008.87 1009.03 1009.17 1009.29 1009.38 1009.45 1009.48 1009.46 1009.38 1009.22 1008.97 1008.64 1008.22 1007.75 1007.25 1006.76 1006.31 1005.93 1005.62 1005.40 1005.24 1005.13 1005.04 1004.93 1004.78 1004.59 1004.34 1004.06 1003.75 1003.44 1003.13 1002.84 1002.57 1002.32 1002.08
1007.80 1008.06 1008.30 1008.50 1008.66 1008.80 1008.93 1009.03 1009.12 1009.18 1009.20 1009.16 1009.04 1008.83 1008.52 1008.12 1007.66 1007.14 1006.62 1006.12 1005.67 1005.30 1005.00 1004.77 1004.59 1004.44 1004.29 1004.12 1003.92 1003.68 1003.40 1003.11 1002.80 1002.50 1002.21 1001.93 1001.66 1001.40
1007.47 1007.76 1008.02 1008.22 1008.38 1008.52 1008.63 1008.73 1008.81 1008.88 1008.91 1008.88 1008.79 1008.60 1008.32 1007.94 1007.48 1006.96 1006.42 1005.88 1005.39 1004.95 1004.59 1004.29 1004.04 1003.83 1003.62 1003.41 1003.19 1002.93 1002.65 1002.36 1002.06 1001.76 1001.47 1001.18 1000.90 1000.63
1007.25 1007.57 1007.82 1008.02 1008.17 1008.28 1008.37 1008.44 1008.51 1008.56 1008.58 1008.55 1008.46 1008.29 1008.03 1007.67 1007.23 1006.72 1006.18 1005.63 1005.11 1004.63 1004.21 1003.84 1003.53 1003.25 1002.98 1002.72 1002.45 1002.16 1001.86 1001.55 1001.24 1000.93 1000.63 1000.34 1000.06 999.78
1007.16 1007.48 1007.71 1007.88 1008.00 1008.08 1008.13 1008.17 1008.20 1008.22 1008.21 1008.18 1008.09 1007.93 1007.69 1007.36 1006.94 1006.46 1005.94 1005.40 1004.87 1004.36 1003.90 1003.48 1003.10 1002.76 1002.43 1002.10 1001.78 1001.44 1001.10 1000.76 1000.42 1000.09 999.77 999.47 999.17 998.89
1007.20 1007.48 1007.68 1007.81 1007.88 1007.91 1007.91 1007.91 1007.89 1007.88 1007.85 1007.80 1007.71 1007.56 1007.34 1007.04 1006.67 1006.22 1005.73 1005.21 1004.69 1004.17 1003.69 1003.23 1002.80 1002.39 1002.00 1001.61 1001.22 1000.83 1000.44 1000.05 999.67 999.31 998.96 998.63 998.32 998.02
1007.35 1007.57 1007.71 1007.78 1007.80 1007.78 1007.73 1007.68 1007.63 1007.58 1007.54 1007.47 1007.38 1007.24 1007.05 1006.78 1006.44 1006.04 1005.59 1005.10 1004.59 1004.08 1003.57 1003.08 1002.61 1002.16 1001.71 1001.26 1000.81 1000.37 999.92 999.48 999.05 998.64 998.25 997.88 997.54 997.23
1007.58 1007.73 1007.80 1007.81 1007.77 1007.70 1007.61 1007.52 1007.44 1007.37 1007.30 1007.23 1007.14 1007.02 1006.84 1006.61 1006.31 1005.94 1005.52 1005.05 1004.56 1004.04 1003.53 1003.01 1002.51 1002.01 1001.51 1001.02 1000.52 1000.03 999.53 999.04 998.57 998.11 997.67 997.26 996.89 996.55
1007.85 1007.92 1007.93 1007.88 1007.79 1007.68 1007.56 1007.45 1007.35 1007.26 1007.19 1007.12 1007.04 1006.92 1006.77 1006.55 1006.28 1005.93 1005.52 1005.07 1004.57 1004.04 1003.51 1002.96 1002.42 1001.89 1001.35 1000.82 1000.29 999.76 999.23 998.71 998.19 997.69 997.21 996.76 996.35 995.97
1008.10 1008.11 1008.07 1007.98 1007.86 1007.72 1007.59 1007.47 1007.36 1007.28 1007.21 1007.14 1007.07 1006.97 1006.82 1006.62 1006.34 1006.00 1005.58 1005.11 1004.59 1004.03 1003.46 1002.88 1002.29 1001.72 1001.15 1000.59 1000.04 999.48 998.94 998.39 997.85 997.33 996.82 996.34 995.88 995.47
1008.30 1008.27 1008.19 1008.09 1007.96 1007.82 1007.69 1007.58 1007.49 1007.41 1007.36 1007.30 1007.24 1007.14 1006.99 1006.77 1006.48 1006.11 1005.66 1005.15 1004.57 1003.96 1003.33 1002.69 1002.06 1001.44 1000.84 1000.26 999.68 999.12 998.57 998.02 997.48 996.94 996.42 995.91 995.44 995.00
1008.43 1008.38 1008.30 1008.20 1008.09 1007.97 1007.86 1007.77 1007.70 1007.65 1007.61 1007.57 1007.51 1007.40 1007.24 1007.00 1006.67 1006.25 1005.74 1005.15 1004.51 1003.82 1003.11 1002.40 1001.70 1001.03 1000.39 999.77 999.19 998.62 998.07 997.53 996.99 996.46 995.94 995.43 994.94 994.49
1008.49 1008.46 1008.40 1008.32 1008.24 1008.15 1008.08 1008.02 1007.98 1007.96 1007.94 1007.90 1007.84 1007.72 1007.53 1007.25 1006.87 1006.38 1005.79 1005.12 1004.37 1003.59 1002.79 1001.99 1001.22 1000.48 999.79 999.15 998.54 997.97 997.43 996.89 996.37 995.85 995.34 994.84 994.36 993.92
1008.52 1008.52 1008.49 1008.46 1008.41 1008.37 1008.33 1008.31 1008.30 1008.30 1008.29 1008.26 1008.19 1008.05 1007.82 1007.49 1007.04 1006.48 1005.80 1005.04 1004.20 1003.31 1002.41 1001.52 1000.67 999.87 999.12 998.44 997.81 997.22 996.67 996.15 995.63 995.13 994.63 994.15 993.69 993.27
1008.56 1008.59 1008.61 1008.62 1008.62 1008.61 1008.61 1008.62 1008.63 1008.64 1008.64 1008.60 1008.51 1008.34 1008.08 1007.69 1007.18 1006.54 1005.78 1004.93 1004.00 1003.02 1002.04 1001.07 1000.14 999.27 998.47 997.74 997.07 996.46 995.90 995.37 994.86 994.36 993.88 993.42 992.98 992.58
1008.63 1008.71 1008.77 1008.81 1008.84 1008.87 1008.89 1008.92 1008.94 1008.95 1008.95 1008.90 1008.78 1008.58 1008.26 1007.83 1007.26 1006.56 1005.73 1004.81 1003.81 1002.77 1001.72 1000.69 999.70 998.78 997.92 997.15 996.45 995.81 995.22 994.67 994.14 993.64 993.17 992.72 992.30 991.93
1008.77 1008.87 1008.96 1009.02 1009.08 1009.12 1009.16 1009.19 1009.21 1009.22 1009.19 1009.12 1008.97 1008.73 1008.38 1007.89 1007.28 1006.53 1005.67 1004.70 1003.67 1002.59 1001.51 1000.44 999.42 998.46 997.58 996.76 996.03 995.35 994.72 994.14 993.60 993.08 992.60 992.15 991.75 991.40
1008.94 1009.06 1009.16 1009.24 1009.30 1009.34 1009.38 1009.41 1009.42 1009.41 1009.36 1009.26 1009.08 1008.80 1008.40 1007.88 1007.24 1006.47 1005.58 1004.61 1003.57 1002.49 1001.41 1000.35 999.33 998.36 997.46 996.63 995.86 995.15 994.48 993.87 993.28 992.74 992.24 991.79 991.39 991.07
1009.12 1009.24 1009.33 1009.41 1009.47 1009.51 1009.55 1009.56 1009.56 1009.53 1009.46 1009.32 1009.10 1008.78 1008.36 1007.81 1007.14 1006.36 1005.48 1004.53 1003.51 1002.47 1001.43 1000.41 999.42 998.47 997.58 996.75 995.96 995.22 994.52 993.87 993.25 992.67 992.15 991.68 991.29 990.98
Thickness
5735 5733 5731 5730 5729 5727 5725 5721 5714 5709 5710 5715 5717 5720 5720 5719 5720 5719 5717 5716 5716 5714 5714 5712 5711 5711 5710 5710 5710 5710 5710 5710 5710 5710 5710 5710 5710 5710
5731 5728 5726 5725 5724 5722 5720 5718 5715 5710 5706 5709 5711 5714 5714 5715 5715 5714 5713 5712 5711 5710 5710 5708 5707 5707 5706 5706 5706 5706 5706 5705 5705 5706 5706 5706 5706 5706
5725 5723 5721 5721 5718 5716 5715 5712 5710 5707 5702 5704 5706 5708 5708 5707 5708 5708 5708 5707 5706 5706 5705 5704 5703 5702 5702 5701 5701 5701 5701 5701 5700 5700 5701 5701 5702 5702
5718 5717 5716 5716 5713 5711 5709 5706 5705 5703 5699 5697 5699 5700 5700 5701 5702 5701 5702 5702 5702 5702 5701 5700 5699 5698 5697 5697 5696 5696 5696 5695 5695 5695 5695 5696 5697 5697
5713 5711 5710 5708 5706 5705 5703 5701 5699 5699 5696 5693 5691 5693 5693 5694 5694 5694 5695 5696 5697 5697 5696 5695 5694 5693 5692 5691 5691 5691 5690 5690 5690 5690 5690 5691 5691 5692
5707 5706 5704 5702 5700 5698 5697 5695 5693 5691 5689 5686 5684 5684 5685 5687 5686 5684 5685 5687 5688 5690 5690 5689 5689 5688 5687 5686 5686 5686 5685 5685 5685 5685 5686 5686 5686 5687
5700 5698 5698 5696 5695 5692 5691 5688 5686 5683 5681 5679 5678 5677 5677 5677 5677 5678 5677 5679 5681 5682 5682 5682 5682 5682 5681 5681 5681 5681 5681 5681 5680 5681 5681 5681 5681 5681
5692 5691 5690 5689 5688 5686 5684 5683 5681 5678 5675 5673 5672 5671 5671 5671 5672 5671 5669 5668 5669 5675 5673 5674 5675 5675 5676 5676 5677 5676 5676 5676 5676 5676 5675 5675 5675 5676
5684 5682 5683 5682 5679 5677 5676 5676 5675 5675 5673 5670 5667 5667 5666 5667 5666 5664 5662 5661 5663 5667 5666 5666 5668 5668 5670 5672 5672 5671 5670 5670 5670 5669 5669 5669 5669 5669
5677 5675 5673 5671 5671 5668 5667 5667 5666 5667 5667 5666 5665 5664 5664 5663 5661 5660 5658 5657 5659 5660 5660 5657 5660 5661 5664 5665 5665 5665 5665 5664 5664 5664 5663 5663 5663 5662
5669 5667 5665 5663 5662 5661 5658 5657 5657 5659 5661 5661 5660 5660 5659 5659 5657 5653 5651 5648 5648 5651 5653 5651 5652 5652 5654 5656 5658 5658 5658 5658 5657 5657 5657 5656 5656 5655
5661 5660 5659 5656 5655 5653 5650 5648 5648 5649 5650 5651 5651 5652 5652 5652 5651 5648 5645 5642 5641 5642 5646 5644 5643 5643 5644 5647 5649 5650 5650 5650 5650 5650 5650 5650 5649 5648
5652 5651 5651 5649 5648 5646 5644 5642 5642 5642 5641 5641 5641 5642 5643 5644 5644 5643 5641 5639 5636 5636 5640 5638 5636 5635 5634 5636 5639 5641 5641 5641 5641 5642 5642 5642 5642 5642
5645 5644 5643 5643 5641 5639 5638 5637 5636 5635 5633 5632 5631 5632 5633 5634 5636 5636 5635 5634 5634 5634 5634 5632 5630 5628 5626 5626 5628 5631 5633 5634 5633 5633 5634 5634 5634 5635
5640 5639 5638 5636 5634 5632 5631 5630 5628 5626 5624 5623 5623 5624 5626 5627 5628 5629 5629 5628 5628 5628 5628 5627 5625 5624 5622 5620 5620 5622 5623 5625 5626 5626 5626 5626 5627 5628
5632 5632 5631 5629 5626 5625 5624 5622 5620 5618 5616 5615 5615 5617 5618 5618 5618 5619 5619 5618 5617 5619 5621 5621 5620 5618 5616 5616 5615 5615 5616 5616 5618 5619 5619 5619 5620 5621
5625 5622 5621 5619 5617 5616 5615 5613 5612 5610 5609 5608 5608 5608 5608 5609 5610 5610 5609 5609 5607 5608 5610 5612 5613 5612 5611 5610 5609 5609 5609 5610 5611 5611 5611 5612 5614 5615
5617 5614 5612 5610 5609 5608 5607 5606 5605 5603 5603 5602 5601 5601 5600 5600 5601 5602 5602 5600 5600 5601 5601 5602 5603 5602 5602 5603 5605 5603 5602 5603 5604 5604 5604 5604 5607 5609
5610 5608 5606 5604 5603 5602 5600 5599 5598 5598 5597 5595 5595 5594 5594 5594 5594 5594 5594 5593 5593 5593 5595 5596 5595 5594 5592 5593 5596 5598 5597 5597 5597 5598 5598 5599 5601 5603
5603 5601 5599 5598 5596 5595 5594 5593 5592 5591 5589 5588 5588 5587 5587 5587 5587 5586 5586 5586 5585 5586 5587 5588 5588 5588 5587 5588 5589 5591 5593 5592 5591 5591 5592 5593 5594 5596
5597 5595 5594 5592 5590 5589 5587 5586 5584 5583 5582 5581 5581 5580 5580 5579 5579 5579 5579 5579 5578 5579 5579 5581 5582 5583 5583 5582 5582 5583 5585 5587 5587 5587 5586 5586 5587 5588
5591 5590 5588 5587 5585 5583 5581 5578 5577 5576 5575 5574 5574 5573 5573 5572 5572 5572 5572 5571 5572 5573 5574 5575 5576 5576 5575 5575 5576 5577 5578 5579 5580 5581 5582 5584 5583 5585
5586 5585 5583 5581 5579 5577 5575 5573 5571 5569 5568 5567 5566 5566 5566 5565 5566 5565 5565 5565 5566 5567 5568 5568 5569 5569 5569 5569 5569 5570 5571 5572 5572 5573 5575 5578 5581 5583